| time (UTC) | temp F | wind direction | speed MPH | gust MPH | rain 1hr in | rain 24hr in | rain mn in | humidity % | barometer mb |
| 20260509221031 | 73 | 0 | 0.0 | 0.0 | 0.00 | 0.00 | 0.00 | 81 | 1010.9 |
| 20260509220532 | 73 | 0 | 0.0 | 0.0 | 0.00 | 0.00 | 0.00 | 80 | 1010.8 |
| 20260509220050 | 73 | 0 | 0.0 | 0.0 | 0.00 | 0.00 | 0.00 | 80 | 1010.7 |
| 20260509215533 | 73 | 0 | 0.0 | 0.0 | 0.00 | 0.00 | 0.00 | 80 | 1010.8 |
| 20260509215033 | 73 | 0 | 0.0 | 2.0 | 0.00 | 0.00 | 0.00 | 79 | 1010.8 |
| 20260509214543 | 73 | 0 | 0.0 | 2.0 | 0.00 | 0.00 | 0.00 | 79 | 1010.9 |
| 20260509214036 | 73 | 144 | 0.0 | 2.0 | 0.00 | 0.00 | 0.00 | 79 | 1010.9 |
| 20260509213532 | 73 | 0 | 0.0 | 1.0 | 0.00 | 0.00 | 0.00 | 80 | 1010.8 |
| 20260509213049 | 73 | 0 | 0.0 | 0.0 | 0.00 | 0.00 | 0.00 | 80 | 1010.8 |
| 20260509212533 | 73 | 0 | 0.0 | 0.0 | 0.00 | 0.00 | 0.00 | 79 | 1010.9 |
| 20260509212032 | 73 | 0 | 0.0 | 0.0 | 0.00 | 0.00 | 0.00 | 79 | 1010.9 |
| 20260509211551 | 73 | 0 | 0.0 | 1.0 | 0.00 | 0.00 | 0.00 | 79 | 1010.7 |
| 20260509211035 | 73 | 0 | 0.0 | 1.0 | 0.00 | 0.00 | 0.00 | 79 | 1010.8 |
| 20260509210532 | 73 | 0 | 0.0 | 1.0 | 0.00 | 0.00 | 0.00 | 78 | 1010.8 |
| 20260509210045 | 73 | 0 | 0.0 | 1.0 | 0.00 | 0.00 | 0.00 | 78 | 1010.7 |
| 20260509205532 | 74 | 0 | 0.0 | 1.0 | 0.00 | 0.00 | 0.00 | 78 | 1010.7 |
| 20260509205032 | 74 | 0 | 0.0 | 0.0 | 0.00 | 0.00 | 0.00 | 78 | 1010.6 |
| 20260509204542 | 74 | 0 | 0.0 | 0.0 | 0.00 | 0.00 | 0.00 | 77 | 1010.6 |
| 20260509204033 | 74 | 0 | 0.0 | 0.0 | 0.00 | 0.00 | 0.00 | 77 | 1010.5 |
| 20260509203533 | 74 | 0 | 0.0 | 0.0 | 0.00 | 0.00 | 0.00 | 77 | 1010.4 |
| 20260509203103 | 74 | 0 | 0.0 | 0.0 | 0.00 | 0.00 | 0.00 | 77 | 1010.5 |
| 20260509202532 | 74 | 0 | 0.0 | 0.0 | 0.00 | 0.00 | 0.00 | 77 | 1010.7 |
| 20260509202036 | 74 | 0 | 0.0 | 0.0 | 0.00 | 0.00 | 0.00 | 77 | 1010.8 |
| 20260509201541 | 74 | 0 | 0.0 | 0.0 | 0.00 | 0.00 | 0.00 | 76 | 1010.9 |
| 20260509201032 | 74 | 0 | 0.0 | 1.0 | 0.00 | 0.00 | 0.00 | 76 | 1010.9 |
| 20260509200532 | 74 | 0 | 0.0 | 1.0 | 0.00 | 0.00 | 0.00 | 75 | 1010.9 |
| 20260509200055 | 75 | 0 | 0.0 | 1.0 | 0.00 | 0.00 | 0.00 | 76 | 1011.0 |
| 20260509195532 | 75 | 0 | 0.0 | 1.0 | 0.00 | 0.00 | 0.00 | 76 | 1010.9 |
| 20260509195032 | 75 | 0 | 0.0 | 0.0 | 0.00 | 0.00 | 0.00 | 76 | 1011.0 |
| 20260509194546 | 75 | 0 | 0.0 | 0.0 | 0.00 | 0.00 | 0.00 | 76 | 1011.1 |
| 20260509194032 | 75 | 0 | 0.0 | 0.0 | 0.00 | 0.00 | 0.00 | 76 | 1011.1 |
| 20260509193532 | 75 | 0 | 0.0 | 0.0 | 0.00 | 0.00 | 0.00 | 75 | 1011.0 |
| 20260509193046 | 75 | 0 | 0.0 | 0.0 | 0.00 | 0.00 | 0.00 | 75 | 1011.2 |
| 20260509192531 | 75 | 0 | 0.0 | 0.0 | 0.00 | 0.00 | 0.00 | 75 | 1011.4 |
| 20260509192031 | 75 | 0 | 0.0 | 0.0 | 0.00 | 0.00 | 0.00 | 75 | 1011.2 |
| 20260509191554 | 75 | 0 | 0.0 | 0.0 | 0.00 | 0.00 | 0.00 | 75 | 1011.2 |
| 20260509191032 | 75 | 0 | 0.0 | 0.0 | 0.00 | 0.00 | 0.00 | 74 | 1011.3 |
| 20260509190532 | 75 | 0 | 0.0 | 1.0 | 0.00 | 0.00 | 0.00 | 74 | 1011.3 |
| 20260509190041 | 75 | 0 | 0.0 | 1.0 | 0.00 | 0.00 | 0.00 | 74 | 1011.3 |
| 20260509185533 | 75 | 0 | 0.0 | 2.0 | 0.00 | 0.00 | 0.00 | 74 | 1011.5 |
| 20260509185033 | 75 | 0 | 0.0 | 3.0 | 0.00 | 0.00 | 0.00 | 75 | 1011.4 |
| 20260509184545 | 75 | 0 | 0.0 | 3.0 | 0.00 | 0.00 | 0.00 | 75 | 1011.3 |
| 20260509184032 | 75 | 165 | 0.0 | 3.0 | 0.00 | 0.00 | 0.00 | 74 | 1011.3 |
| 20260509183534 | 75 | 0 | 0.0 | 2.0 | 0.00 | 0.00 | 0.00 | 74 | 1011.3 |
| 20260509183047 | 75 | 0 | 0.0 | 2.0 | 0.00 | 0.00 | 0.00 | 77 | 1011.4 |
| 20260509182533 | 75 | 0 | 0.0 | 2.0 | 0.00 | 0.00 | 0.00 | 74 | 1011.4 |
| 20260509182032 | 75 | 0 | 0.0 | 3.0 | 0.00 | 0.00 | 0.00 | 76 | 1011.3 |
| 20260509181543 | 75 | 0 | 0.0 | 3.0 | 0.00 | 0.00 | 0.00 | 75 | 1011.3 |
| 20260509181036 | 75 | 0 | 0.0 | 3.0 | 0.00 | 0.00 | 0.00 | 75 | 1011.3 |
| 20260509180532 | 74 | 0 | 0.0 | 1.0 | 0.00 | 0.00 | 0.00 | 76 | 1011.4 |
| 20260509180042 | 74 | 0 | 0.0 | 2.0 | 0.00 | 0.00 | 0.00 | 77 | 1011.4 |
| 20260509175531 | 74 | 0 | 0.0 | 3.0 | 0.00 | 0.00 | 0.00 | 76 | 1011.5 |
| 20260509175033 | 74 | 146 | 0.0 | 3.0 | 0.00 | 0.00 | 0.00 | 73 | 1011.3 |
| 20260509174541 | 74 | 147 | 1.0 | 3.0 | 0.00 | 0.00 | 0.00 | 72 | 1011.3 |
| 20260509174033 | 74 | 128 | 0.0 | 2.0 | 0.00 | 0.00 | 0.00 | 76 | 1011.6 |
| 20260509173532 | 73 | 0 | 0.0 | 1.0 | 0.00 | 0.00 | 0.00 | 75 | 1011.8 |
| 20260509173041 | 74 | 0 | 0.0 | 1.0 | 0.00 | 0.00 | 0.00 | 74 | 1012.0 |
| 20260509172533 | 73 | 0 | 0.0 | 2.0 | 0.00 | 0.00 | 0.00 | 73 | 1012.1 |
| 20260509172033 | 73 | 0 | 0.0 | 2.0 | 0.00 | 0.00 | 0.00 | 72 | 1012.1 |
| 20260509171544 | 73 | 38 | 0.0 | 1.0 | 0.00 | 0.00 | 0.00 | 74 | 1012.2 |
| 20260509171031 | 73 | 0 | 0.0 | 1.0 | 0.00 | 0.00 | 0.00 | 75 | 1012.2 |
| 20260509170533 | 73 | 0 | 0.0 | 0.0 | 0.00 | 0.00 | 0.00 | 75 | 1012.3 |
| 20260509170046 | 73 | 0 | 0.0 | 0.0 | 0.00 | 0.00 | 0.00 | 75 | 1012.3 |
| 20260509165531 | 72 | 0 | 0.0 | 0.0 | 0.00 | 0.00 | 0.00 | 75 | 1012.6 |
| 20260509165031 | 72 | 0 | 0.0 | 0.0 | 0.00 | 0.00 | 0.00 | 77 | 1012.5 |
| 20260509164600 | 71 | 0 | 0.0 | 1.0 | 0.00 | 0.00 | 0.00 | 78 | 1012.5 |
| 20260509164034 | 71 | 0 | 0.0 | 1.0 | 0.00 | 0.00 | 0.00 | 78 | 1012.7 |
| 20260509163536 | 71 | 0 | 0.0 | 1.0 | 0.00 | 0.00 | 0.00 | 77 | 1012.8 |
| 20260509163040 | 71 | 0 | 0.0 | 2.0 | 0.00 | 0.00 | 0.00 | 78 | 1012.8 |
| 20260509162531 | 71 | 0 | 0.0 | 2.0 | 0.00 | 0.00 | 0.00 | 77 | 1012.8 |
| 20260509162032 | 70 | 0 | 0.0 | 1.0 | 0.00 | 0.00 | 0.00 | 80 | 1012.8 |
| 20260509161554 | 70 | 0 | 0.0 | 1.0 | 0.00 | 0.00 | 0.00 | 76 | 1012.8 |
| 20260509161033 | 70 | 0 | 0.0 | 1.0 | 0.00 | 0.00 | 0.00 | 80 | 1013.0 |
| 20260509160532 | 69 | 0 | 0.0 | 1.0 | 0.00 | 0.00 | 0.00 | 83 | 1013.0 |
| 20260509160044 | 68 | 0 | 0.0 | 2.0 | 0.00 | 0.00 | 0.00 | 85 | 1013.0 |
| 20260509155533 | 68 | 0 | 0.0 | 2.0 | 0.00 | 0.00 | 0.00 | 82 | 1013.1 |
| 20260509155034 | 67 | 0 | 0.0 | 0.0 | 0.00 | 0.00 | 0.00 | 84 | 1013.4 |
| 20260509154541 | 67 | 0 | 0.0 | 0.0 | 0.00 | 0.00 | 0.00 | 84 | 1013.4 |
| 20260509154032 | 67 | 0 | 0.0 | 0.0 | 0.00 | 0.00 | 0.00 | 85 | 1013.5 |
| 20260509153531 | 67 | 0 | 0.0 | 1.0 | 0.00 | 0.00 | 0.00 | 88 | 1013.7 |
| 20260509153045 | 67 | 0 | 0.0 | 1.0 | 0.00 | 0.00 | 0.00 | 89 | 1013.7 |
| 20260509152531 | 67 | 0 | 0.0 | 1.0 | 0.00 | 0.00 | 0.00 | 89 | 1014.0 |
| 20260509152031 | 67 | 0 | 0.0 | 0.0 | 0.00 | 0.00 | 0.00 | 89 | 1014.1 |
| 20260509151543 | 67 | 0 | 0.0 | 0.0 | 0.00 | 0.00 | 0.00 | 89 | 1014.1 |
| 20260509151032 | 67 | 0 | 0.0 | 0.0 | 0.00 | 0.00 | 0.00 | 89 | 1014.4 |
| 20260509150533 | 66 | 0 | 0.0 | 0.0 | 0.00 | 0.00 | 0.00 | 89 | 1014.5 |
| 20260509150042 | 66 | 0 | 0.0 | 0.0 | 0.00 | 0.00 | 0.00 | 89 | 1014.4 |
| 20260509145533 | 66 | 0 | 0.0 | 0.0 | 0.00 | 0.00 | 0.00 | 89 | 1014.4 |
| 20260509145032 | 66 | 0 | 0.0 | 0.0 | 0.00 | 0.00 | 0.00 | 89 | 1014.4 |
| 20260509144544 | 66 | 0 | 0.0 | 0.0 | 0.00 | 0.00 | 0.00 | 89 | 1014.5 |
| 20260509144032 | 66 | 0 | 0.0 | 0.0 | 0.00 | 0.00 | 0.00 | 89 | 1014.5 |
| 20260509143534 | 66 | 0 | 0.0 | 0.0 | 0.00 | 0.00 | 0.00 | 89 | 1014.6 |
| 20260509143047 | 66 | 0 | 0.0 | 0.0 | 0.00 | 0.00 | 0.00 | 89 | 1014.5 |
| 20260509142533 | 66 | 0 | 0.0 | 0.0 | 0.00 | 0.00 | 0.00 | 89 | 1014.4 |
| 20260509142034 | 66 | 0 | 0.0 | 0.0 | 0.00 | 0.00 | 0.00 | 89 | 1014.4 |
| 20260509141542 | 66 | 0 | 0.0 | 0.0 | 0.00 | 0.00 | 0.00 | 90 | 1014.1 |
| 20260509141032 | 66 | 0 | 0.0 | 0.0 | 0.00 | 0.00 | 0.00 | 90 | 1014.1 |
| 20260509140531 | 66 | 0 | 0.0 | 0.0 | 0.00 | 0.00 | 0.00 | 90 | 1013.9 |
| 20260509140045 | 65 | 0 | 0.0 | 0.0 | 0.00 | 0.00 | 0.00 | 90 | 1014.0 |
| 20260509135531 | 65 | 0 | 0.0 | 0.0 | 0.00 | 0.00 | 0.00 | 89 | 1014.2 |
| 20260509135030 | 65 | 0 | 0.0 | 0.0 | 0.00 | 0.00 | 0.00 | 89 | 1014.1 |
| 20260509134547 | 65 | 0 | 0.0 | 0.0 | 0.00 | 0.00 | 0.00 | 89 | 1014.2 |
| 20260509134031 | 65 | 0 | 0.0 | 0.0 | 0.00 | 0.00 | 0.00 | 89 | 1014.0 |
| 20260509133533 | 65 | 0 | 0.0 | 0.0 | 0.00 | 0.00 | 0.00 | 90 | 1014.1 |
| 20260509133048 | 65 | 0 | 0.0 | 0.0 | 0.00 | 0.00 | 0.00 | 90 | 1014.3 |
| 20260509132532 | 65 | 0 | 0.0 | 0.0 | 0.00 | 0.00 | 0.00 | 91 | 1014.4 |
| 20260509132031 | 64 | 0 | 0.0 | 0.0 | 0.00 | 0.00 | 0.00 | 91 | 1014.3 |
| 20260509131548 | 64 | 0 | 0.0 | 2.0 | 0.00 | 0.00 | 0.00 | 91 | 1014.3 |
| 20260509131032 | 64 | 0 | 0.0 | 2.0 | 0.00 | 0.00 | 0.00 | 91 | 1014.2 |
| 20260509130531 | 63 | 0 | 0.0 | 0.0 | 0.00 | 0.00 | 0.00 | 92 | 1014.2 |
| 20260509130057 | 63 | 0 | 0.0 | 0.0 | 0.00 | 0.00 | 0.00 | 91 | 1014.2 |
| 20260509125533 | 63 | 0 | 0.0 | 0.0 | 0.00 | 0.00 | 0.00 | 91 | 1014.1 |
| 20260509125031 | 62 | 0 | 0.0 | 0.0 | 0.00 | 0.00 | 0.00 | 91 | 1014.2 |
| 20260509124546 | 62 | 0 | 0.0 | 3.0 | 0.00 | 0.00 | 0.00 | 91 | 1014.1 |
| 20260509124033 | 62 | 0 | 0.0 | 3.0 | 0.00 | 0.00 | 0.00 | 92 | 1014.0 |
| 20260509123533 | 61 | 67 | 1.0 | 3.0 | 0.00 | 0.00 | 0.00 | 92 | 1014.0 |
| 20260509123049 | 61 | 0 | 0.0 | 0.0 | 0.00 | 0.00 | 0.00 | 93 | 1014.3 |
| 20260509122533 | 61 | 0 | 0.0 | 0.0 | 0.00 | 0.00 | 0.00 | 93 | 1014.4 |
| 20260509122033 | 61 | 0 | 0.0 | 1.0 | 0.00 | 0.00 | 0.00 | 92 | 1014.5 |
| 20260509121545 | 60 | 0 | 0.0 | 2.0 | 0.00 | 0.00 | 0.00 | 93 | 1014.5 |
| 20260509121033 | 60 | 0 | 0.0 | 2.0 | 0.00 | 0.00 | 0.00 | 93 | 1014.4 |
| 20260509120532 | 60 | 0 | 0.0 | 2.0 | 0.00 | 0.00 | 0.00 | 93 | 1014.4 |
| 20260509120055 | 60 | 0 | 0.0 | 0.0 | 0.00 | 0.00 | 0.00 | 93 | 1014.5 |
| 20260509115533 | 60 | 0 | 0.0 | 2.0 | 0.00 | 0.00 | 0.00 | 94 | 1014.3 |
| 20260509115033 | 60 | 0 | 0.0 | 2.0 | 0.00 | 0.00 | 0.00 | 94 | 1014.3 |
| 20260509114544 | 59 | 0 | 0.0 | 2.0 | 0.00 | 0.00 | 0.00 | 94 | 1014.2 |
| 20260509114033 | 59 | 0 | 0.0 | 0.0 | 0.00 | 0.00 | 0.00 | 93 | 1014.2 |
| 20260509113533 | 59 | 0 | 0.0 | 0.0 | 0.00 | 0.00 | 0.00 | 93 | 1014.0 |
| 20260509113043 | 59 | 0 | 0.0 | 0.0 | 0.00 | 0.00 | 0.00 | 93 | 1013.9 |
| 20260509112536 | 59 | 0 | 0.0 | 0.0 | 0.00 | 0.00 | 0.00 | 93 | 1013.9 |
| 20260509112033 | 59 | 0 | 0.0 | 0.0 | 0.00 | 0.00 | 0.00 | 93 | 1013.7 |
| 20260509111541 | 58 | 0 | 0.0 | 0.0 | 0.00 | 0.00 | 0.00 | 93 | 1013.8 |
| 20260509111033 | 58 | 0 | 0.0 | 0.0 | 0.00 | 0.00 | 0.00 | 93 | 1014.0 |
| 20260509110533 | 58 | 0 | 0.0 | 0.0 | 0.00 | 0.00 | 0.00 | 93 | 1013.8 |
| 20260509110045 | 58 | 0 | 0.0 | 0.0 | 0.00 | 0.00 | 0.00 | 93 | 1013.8 |
| 20260509105533 | 58 | 0 | 0.0 | 0.0 | 0.00 | 0.00 | 0.00 | 93 | 1013.8 |
| 20260509105034 | 58 | 0 | 0.0 | 0.0 | 0.00 | 0.00 | 0.00 | 93 | 1013.9 |
| 20260509104543 | 58 | 0 | 0.0 | 0.0 | 0.00 | 0.00 | 0.00 | 93 | 1013.8 |
| 20260509104034 | 58 | 0 | 0.0 | 0.0 | 0.00 | 0.00 | 0.00 | 93 | 1013.9 |
| 20260509103532 | 58 | 0 | 0.0 | 0.0 | 0.00 | 0.00 | 0.00 | 93 | 1013.8 |
| 20260509103043 | 58 | 0 | 0.0 | 0.0 | 0.00 | 0.00 | 0.00 | 93 | 1013.7 |
| 20260509102534 | 58 | 0 | 0.0 | 0.0 | 0.00 | 0.00 | 0.00 | 93 | 1013.7 |
| 20260509102034 | 58 | 0 | 0.0 | 0.0 | 0.00 | 0.00 | 0.00 | 93 | 1013.6 |
| 20260509101544 | 58 | 0 | 0.0 | 0.0 | 0.00 | 0.00 | 0.00 | 93 | 1013.6 |
| 20260509101034 | 58 | 0 | 0.0 | 0.0 | 0.00 | 0.00 | 0.00 | 93 | 1013.5 |
| 20260509100533 | 58 | 0 | 0.0 | 0.0 | 0.00 | 0.00 | 0.00 | 92 | 1013.5 |
| 20260509100044 | 58 | 0 | 0.0 | 0.0 | 0.00 | 0.00 | 0.00 | 92 | 1013.6 |
| 20260509095534 | 58 | 0 | 0.0 | 0.0 | 0.00 | 0.00 | 0.00 | 92 | 1013.5 |
| 20260509095032 | 58 | 0 | 0.0 | 0.0 | 0.00 | 0.00 | 0.00 | 92 | 1013.7 |
| 20260509094545 | 58 | 0 | 0.0 | 0.0 | 0.00 | 0.00 | 0.00 | 92 | 1013.7 |
| 20260509094033 | 58 | 0 | 0.0 | 0.0 | 0.00 | 0.00 | 0.00 | 92 | 1013.9 |
| 20260509093533 | 58 | 0 | 0.0 | 0.0 | 0.00 | 0.00 | 0.00 | 92 | 1013.9 |
| 20260509093043 | 58 | 0 | 0.0 | 0.0 | 0.00 | 0.00 | 0.00 | 92 | 1013.8 |
| 20260509092535 | 58 | 0 | 0.0 | 0.0 | 0.00 | 0.00 | 0.00 | 92 | 1014.0 |
| 20260509092033 | 58 | 0 | 0.0 | 0.0 | 0.00 | 0.00 | 0.00 | 92 | 1013.9 |
| 20260509091541 | 59 | 0 | 0.0 | 0.0 | 0.00 | 0.00 | 0.00 | 92 | 1014.1 |
| 20260509091033 | 59 | 0 | 0.0 | 0.0 | 0.00 | 0.00 | 0.00 | 92 | 1014.0 |
| 20260509090534 | 59 | 0 | 0.0 | 0.0 | 0.00 | 0.00 | 0.00 | 92 | 1014.0 |
| 20260509090046 | 59 | 0 | 0.0 | 0.0 | 0.00 | 0.00 | 0.00 | 92 | 1014.0 |
| 20260509085533 | 59 | 0 | 0.0 | 0.0 | 0.00 | 0.00 | 0.00 | 92 | 1013.9 |
| 20260509085033 | 59 | 0 | 0.0 | 0.0 | 0.00 | 0.00 | 0.00 | 93 | 1014.0 |
| 20260509084542 | 59 | 0 | 0.0 | 0.0 | 0.00 | 0.00 | 0.00 | 93 | 1014.1 |
| 20260509084034 | 59 | 0 | 0.0 | 0.0 | 0.00 | 0.00 | 0.00 | 93 | 1014.0 |
| 20260509083532 | 59 | 0 | 0.0 | 0.0 | 0.00 | 0.00 | 0.00 | 93 | 1013.9 |
| 20260509083049 | 59 | 0 | 0.0 | 0.0 | 0.00 | 0.00 | 0.00 | 93 | 1014.0 |
| 20260509082533 | 59 | 0 | 0.0 | 0.0 | 0.00 | 0.00 | 0.00 | 93 | 1014.1 |
| 20260509082033 | 59 | 0 | 0.0 | 0.0 | 0.00 | 0.00 | 0.00 | 93 | 1014.1 |
| 20260509081549 | 59 | 0 | 0.0 | 0.0 | 0.00 | 0.00 | 0.00 | 92 | 1014.2 |
| 20260509081033 | 59 | 0 | 0.0 | 0.0 | 0.00 | 0.00 | 0.00 | 92 | 1014.3 |
| 20260509080532 | 59 | 0 | 0.0 | 0.0 | 0.00 | 0.00 | 0.00 | 92 | 1014.2 |
| 20260509080042 | 59 | 0 | 0.0 | 0.0 | 0.00 | 0.00 | 0.00 | 92 | 1014.3 |
| 20260509075533 | 59 | 0 | 0.0 | 0.0 | 0.00 | 0.01 | 0.00 | 92 | 1014.2 |
| 20260509075035 | 59 | 0 | 0.0 | 0.0 | 0.00 | 0.01 | 0.00 | 92 | 1014.3 |
| 20260509074541 | 59 | 0 | 0.0 | 0.0 | 0.00 | 0.01 | 0.00 | 92 | 1014.5 |
| 20260509074033 | 58 | 0 | 0.0 | 0.0 | 0.00 | 0.01 | 0.00 | 92 | 1014.7 |
| 20260509073534 | 58 | 0 | 0.0 | 0.0 | 0.00 | 0.01 | 0.00 | 92 | 1014.8 |
| 20260509073039 | 59 | 0 | 0.0 | 0.0 | 0.00 | 0.01 | 0.00 | 92 | 1014.7 |
| 20260509072533 | 59 | 0 | 0.0 | 0.0 | 0.00 | 0.01 | 0.00 | 92 | 1014.9 |
| 20260509072034 | 59 | 0 | 0.0 | 0.0 | 0.00 | 0.01 | 0.00 | 92 | 1014.9 |
| 20260509071547 | 59 | 0 | 0.0 | 0.0 | 0.00 | 0.01 | 0.00 | 92 | 1014.6 |
| 20260509071034 | 59 | 0 | 0.0 | 0.0 | 0.00 | 0.01 | 0.00 | 92 | 1014.6 |
| 20260509070533 | 59 | 0 | 0.0 | 0.0 | 0.00 | 0.01 | 0.00 | 92 | 1014.8 |
| 20260509070055 | 58 | 0 | 0.0 | 0.0 | 0.00 | 0.01 | 0.00 | 92 | 1014.8 |
| 20260509065532 | 58 | 0 | 0.0 | 0.0 | 0.00 | 0.01 | 0.00 | 92 | 1015.1 |
| 20260509065033 | 58 | 0 | 0.0 | 0.0 | 0.00 | 0.01 | 0.00 | 92 | 1014.9 |
| 20260509064549 | 58 | 0 | 0.0 | 0.0 | 0.00 | 0.01 | 0.00 | 92 | 1014.9 |
| 20260509064034 | 58 | 0 | 0.0 | 0.0 | 0.00 | 0.01 | 0.00 | 92 | 1014.9 |
| 20260509063532 | 58 | 0 | 0.0 | 0.0 | 0.00 | 0.01 | 0.00 | 91 | 1015.0 |
| 20260509063048 | 58 | 0 | 0.0 | 0.0 | 0.00 | 0.01 | 0.00 | 91 | 1015.1 |
| 20260509062532 | 58 | 0 | 0.0 | 0.0 | 0.00 | 0.01 | 0.00 | 91 | 1015.0 |
| 20260509062033 | 58 | 0 | 0.0 | 0.0 | 0.00 | 0.01 | 0.00 | 91 | 1015.0 |
| 20260509061541 | 58 | 0 | 0.0 | 0.0 | 0.00 | 0.01 | 0.00 | 91 | 1015.1 |
| 20260509061034 | 58 | 0 | 0.0 | 0.0 | 0.00 | 0.01 | 0.00 | 91 | 1015.1 |
| 20260509060533 | 58 | 0 | 0.0 | 0.0 | 0.00 | 0.01 | 0.00 | 91 | 1015.1 |
| 20260509060100 | 58 | 0 | 0.0 | 0.0 | 0.00 | 0.01 | 0.00 | 91 | 1015.2 |
| 20260509055533 | 58 | 0 | 0.0 | 0.0 | 0.00 | 0.01 | 0.00 | 91 | 1015.1 |
| 20260509055033 | 58 | 0 | 0.0 | 0.0 | 0.00 | 0.01 | 0.00 | 91 | 1015.3 |
| 20260509054548 | 58 | 0 | 0.0 | 0.0 | 0.00 | 0.01 | 0.00 | 91 | 1015.4 |
| 20260509054032 | 58 | 0 | 0.0 | 0.0 | 0.00 | 0.01 | 0.00 | 91 | 1015.5 |
| 20260509053533 | 58 | 0 | 0.0 | 0.0 | 0.00 | 0.01 | 0.00 | 90 | 1015.7 |
| 20260509053041 | 58 | 0 | 0.0 | 0.0 | 0.00 | 0.01 | 0.00 | 90 | 1015.7 |
| 20260509052537 | 58 | 0 | 0.0 | 0.0 | 0.00 | 0.01 | 0.00 | 90 | 1015.8 |
| 20260509052035 | 58 | 0 | 0.0 | 0.0 | 0.00 | 0.01 | 0.00 | 90 | 1015.8 |
| 20260509051541 | 59 | 0 | 0.0 | 0.0 | 0.00 | 0.01 | 0.00 | 90 | 1015.8 |
| 20260509051033 | 59 | 0 | 0.0 | 0.0 | 0.00 | 0.01 | 0.00 | 90 | 1015.6 |
| 20260509050533 | 59 | 0 | 0.0 | 0.0 | 0.00 | 0.01 | 0.00 | 90 | 1015.7 |
| 20260509050059 | 59 | 0 | 0.0 | 0.0 | 0.00 | 0.01 | 0.00 | 90 | 1015.6 |
| 20260509045534 | 59 | 0 | 0.0 | 0.0 | 0.00 | 0.03 | 0.00 | 90 | 1015.8 |
| 20260509045033 | 59 | 0 | 0.0 | 0.0 | 0.00 | 0.03 | 0.00 | 90 | 1015.7 |
| 20260509044556 | 59 | 0 | 0.0 | 0.0 | 0.00 | 0.03 | 0.00 | 90 | 1015.7 |
| 20260509044032 | 59 | 0 | 0.0 | 0.0 | 0.00 | 0.03 | 0.00 | 90 | 1015.8 |
| 20260509043532 | 59 | 0 | 0.0 | 0.0 | 0.00 | 0.03 | 0.00 | 90 | 1015.8 |
| 20260509043042 | 59 | 0 | 0.0 | 0.0 | 0.00 | 0.03 | 0.00 | 90 | 1015.8 |
| 20260509042533 | 59 | 0 | 0.0 | 0.0 | 0.00 | 0.03 | 0.00 | 90 | 1015.8 |
| 20260509042032 | 59 | 0 | 0.0 | 0.0 | 0.00 | 0.03 | 0.00 | 89 | 1015.9 |
| 20260509041542 | 59 | 0 | 0.0 | 0.0 | 0.00 | 0.03 | 0.00 | 89 | 1016.0 |
| 20260509041034 | 59 | 0 | 0.0 | 0.0 | 0.00 | 0.03 | 0.00 | 89 | 1016.0 |
| 20260509040532 | 59 | 0 | 0.0 | 0.0 | 0.00 | 0.03 | 0.00 | 88 | 1016.0 |
| 20260509040047 | 59 | 0 | 0.0 | 0.0 | 0.00 | 0.03 | 0.00 | 88 | 1016.1 |
| 20260509035532 | 59 | 0 | 0.0 | 0.0 | 0.00 | 0.16 | 0.03 | 88 | 1016.1 |
| 20260509035034 | 59 | 0 | 0.0 | 0.0 | 0.00 | 0.16 | 0.03 | 87 | 1016.3 |
| 20260509034543 | 60 | 0 | 0.0 | 0.0 | 0.00 | 0.16 | 0.03 | 87 | 1016.2 |
| 20260509034033 | 60 | 0 | 0.0 | 0.0 | 0.00 | 0.16 | 0.03 | 87 | 1016.4 |
| 20260509033533 | 60 | 0 | 0.0 | 0.0 | 0.00 | 0.16 | 0.03 | 87 | 1016.3 |
| 20260509033040 | 60 | 0 | 0.0 | 0.0 | 0.00 | 0.16 | 0.03 | 87 | 1016.4 |
| 20260509032535 | 60 | 0 | 0.0 | 0.0 | 0.00 | 0.16 | 0.03 | 87 | 1016.4 |
| 20260509032033 | 60 | 0 | 0.0 | 0.0 | 0.00 | 0.16 | 0.03 | 86 | 1016.5 |
| 20260509031548 | 60 | 0 | 0.0 | 0.0 | 0.00 | 0.16 | 0.03 | 86 | 1016.4 |
| 20260509031033 | 60 | 0 | 0.0 | 0.0 | 0.00 | 0.16 | 0.03 | 86 | 1016.4 |
| 20260509030533 | 60 | 0 | 0.0 | 0.0 | 0.00 | 0.16 | 0.03 | 86 | 1016.4 |
| 20260509030044 | 61 | 0 | 0.0 | 0.0 | 0.00 | 0.16 | 0.03 | 86 | 1016.4 |
| 20260509025532 | 61 | 0 | 0.0 | 0.0 | 0.00 | 0.16 | 0.03 | 86 | 1016.4 |
| 20260509025033 | 61 | 0 | 0.0 | 0.0 | 0.00 | 0.16 | 0.03 | 85 | 1016.3 |
| 20260509024541 | 61 | 0 | 0.0 | 0.0 | 0.00 | 0.16 | 0.03 | 85 | 1016.5 |
| 20260509024033 | 61 | 0 | 0.0 | 0.0 | 0.00 | 0.16 | 0.03 | 84 | 1016.5 |
| 20260509023534 | 61 | 0 | 0.0 | 0.0 | 0.00 | 0.16 | 0.03 | 84 | 1016.5 |
| 20260509023050 | 61 | 0 | 0.0 | 0.0 | 0.00 | 0.16 | 0.03 | 84 | 1016.6 |
| 20260509022533 | 61 | 0 | 0.0 | 0.0 | 0.00 | 0.16 | 0.03 | 84 | 1016.6 |
| 20260509022033 | 61 | 0 | 0.0 | 0.0 | 0.00 | 0.16 | 0.03 | 84 | 1016.7 |
| 20260509021543 | 61 | 0 | 0.0 | 0.0 | 0.00 | 0.16 | 0.03 | 84 | 1016.6 |
| 20260509021033 | 61 | 0 | 0.0 | 0.0 | 0.00 | 0.16 | 0.03 | 84 | 1016.6 |
| 20260509020533 | 61 | 0 | 0.0 | 0.0 | 0.00 | 0.16 | 0.03 | 83 | 1016.6 |
| 20260509020042 | 62 | 0 | 0.0 | 0.0 | 0.00 | 0.16 | 0.03 | 83 | 1016.6 |
| 20260509015534 | 62 | 0 | 0.0 | 0.0 | 0.00 | 0.16 | 0.03 | 83 | 1016.5 |
| 20260509015033 | 62 | 0 | 0.0 | 0.0 | 0.00 | 0.16 | 0.03 | 82 | 1016.3 |
| 20260509014544 | 62 | 0 | 0.0 | 0.0 | 0.00 | 0.16 | 0.03 | 81 | 1016.4 |
| 20260509014032 | 62 | 0 | 0.0 | 0.0 | 0.00 | 0.16 | 0.03 | 81 | 1016.4 |
| 20260509013533 | 62 | 0 | 0.0 | 0.0 | 0.00 | 0.16 | 0.03 | 81 | 1016.2 |
| 20260509013046 | 62 | 0 | 0.0 | 0.0 | 0.00 | 0.16 | 0.03 | 80 | 1016.2 |
| 20260509012532 | 62 | 0 | 0.0 | 0.0 | 0.00 | 0.16 | 0.03 | 80 | 1016.0 |
| 20260509012033 | 62 | 0 | 0.0 | 2.0 | 0.00 | 0.16 | 0.03 | 80 | 1016.1 |
| 20260509011546 | 62 | 0 | 0.0 | 2.0 | 0.00 | 0.16 | 0.03 | 79 | 1015.8 |
| 20260509011032 | 62 | 0 | 0.0 | 2.0 | 0.00 | 0.16 | 0.03 | 79 | 1015.7 |
| 20260509010533 | 62 | 142 | 0.0 | 2.0 | 0.00 | 0.16 | 0.03 | 79 | 1015.6 |
| 20260509010049 | 62 | 0 | 0.0 | 2.0 | 0.00 | 0.16 | 0.03 | 79 | 1015.5 |
| 20260509005533 | 62 | 0 | 0.0 | 2.0 | 0.00 | 0.16 | 0.03 | 79 | 1015.5 |
| 20260509005033 | 62 | 142 | 0.0 | 1.0 | 0.00 | 0.16 | 0.03 | 79 | 1015.6 |
| 20260509004544 | 62 | 0 | 0.0 | 2.0 | 0.00 | 0.16 | 0.03 | 78 | 1015.7 |
| 20260509004032 | 62 | 0 | 0.0 | 2.0 | 0.00 | 0.16 | 0.03 | 77 | 1015.7 |
| 20260509003534 | 63 | 0 | 0.0 | 0.0 | 0.00 | 0.16 | 0.03 | 77 | 1015.7 |
| 20260509003059 | 63 | 0 | 0.0 | 0.0 | 0.00 | 0.16 | 0.03 | 75 | 1015.7 |
| 20260509002534 | 63 | 0 | 0.0 | 0.0 | 0.00 | 0.16 | 0.03 | 75 | 1015.9 |
| 20260509002033 | 63 | 0 | 0.0 | 0.0 | 0.00 | 0.16 | 0.03 | 74 | 1015.9 |
| 20260509001547 | 64 | 0 | 0.0 | 0.0 | 0.00 | 0.16 | 0.03 | 73 | 1015.6 |
| 20260509001035 | 64 | 0 | 0.0 | 0.0 | 0.00 | 0.16 | 0.03 | 70 | 1015.7 |
| 20260509000532 | 65 | 0 | 0.0 | 0.0 | 0.00 | 0.16 | 0.03 | 72 | 1015.6 |
| 20260509000043 | 65 | 0 | 0.0 | 0.0 | 0.00 | 0.16 | 0.03 | 71 | 1015.7 |
| 20260508235534 | 65 | 0 | 0.0 | 0.0 | 0.00 | 0.16 | 0.03 | 70 | 1015.5 |
| 20260508235033 | 65 | 0 | 0.0 | 0.0 | 0.00 | 0.16 | 0.03 | 69 | 1015.4 |
| 20260508234550 | 66 | 0 | 0.0 | 0.0 | 0.00 | 0.16 | 0.03 | 69 | 1015.5 |
| 20260508234032 | 66 | 0 | 0.0 | 0.0 | 0.00 | 0.16 | 0.03 | 67 | 1015.4 |
| 20260508233533 | 66 | 0 | 0.0 | 0.0 | 0.00 | 0.16 | 0.03 | 66 | 1015.4 |
| 20260508233043 | 66 | 0 | 0.0 | 0.0 | 0.00 | 0.16 | 0.03 | 63 | 1015.5 |
| 20260508232533 | 67 | 0 | 0.0 | 2.0 | 0.00 | 0.16 | 0.03 | 62 | 1015.4 |
| 20260508232032 | 67 | 0 | 0.0 | 3.0 | 0.00 | 0.16 | 0.03 | 64 | 1015.5 |
| 20260508231549 | 67 | 0 | 0.0 | 3.0 | 0.00 | 0.16 | 0.03 | 62 | 1015.4 |
| 20260508231035 | 67 | 142 | 0.0 | 2.0 | 0.00 | 0.16 | 0.03 | 57 | 1015.3 |
| 20260508230533 | 67 | 0 | 0.0 | 2.0 | 0.00 | 0.16 | 0.03 | 62 | 1015.3 |
| 20260508225532 | 67 | 0 | 0.0 | 3.0 | 0.00 | 0.16 | 0.03 | 58 | 1015.1 |
| 20260508225032 | 68 | 142 | 0.0 | 3.0 | 0.00 | 0.16 | 0.03 | 57 | 1015.2 |
| 20260508224543 | 68 | 144 | 1.0 | 3.0 | 0.00 | 0.16 | 0.03 | 58 | 1015.1 |
| 20260508224035 | 68 | 148 | 0.0 | 3.0 | 0.00 | 0.16 | 0.03 | 58 | 1014.9 |
| 20260508223534 | 68 | 153 | 0.0 | 3.0 | 0.00 | 0.16 | 0.03 | 58 | 1015.1 |
| 20260508223043 | 68 | 0 | 0.0 | 2.0 | 0.00 | 0.16 | 0.03 | 59 | 1015.1 |
| 20260508222535 | 68 | 0 | 0.0 | 2.0 | 0.00 | 0.16 | 0.03 | 57 | 1015.0 |
| 20260508222033 | 68 | 178 | 0.0 | 2.0 | 0.00 | 0.16 | 0.03 | 60 | 1015.0 |
| 20260508221542 | 68 | 275 | 0.0 | 2.0 | 0.00 | 0.16 | 0.03 | 63 | 1014.9 |